Volver al catálogo

STARLINK-36692

ActivoComunicacionesSSO
NORAD 67744·PAYLOAD·🇺🇸 United States

Lanzado Feb 11, 2026 desde Vandenberg Space Force Base

Loading…

Próximos Pases (próximas 24 horas)

TLE

ActualizadoSource: CelesTrak SupGP

Época: Sep 14, 2026, 21:14 UTC

1 67744C 26026Z   26257.88520833 -.00013735  00000+0 -42547-3 0  2575
2 67744  97.2842 309.8519 0000918  67.2123 293.0454 15.33513550    15

Sigue STARLINK-36692 en tiempo real con AllMySat

Download on the App Store